Date String (YYYY-MM-DD hh:mm:ss) UTC,Instrument flags,Ambient pressure (hPa),Sample flow (lpm),Bypass flow (lpm),Sample temperature (°C),Ambient temperature (°C),ASC tube jacket temperature (°C),LED temperature (°C),Box temperature (°C),Sample RH (%),Span deviation,Mass concentration (μg/m³),Mass concentration (μg/m³),Mass concentration (μg/m³)
DateTimeUTC,F1_M11,P_M11,Q1_M11,Q2_M11,T1_M11,T2_M11,T3_M11,T4_M11,T5_M11,U1_M11,ZSPAN_M11,X0_M11,X2_M11,X1_M11
2022-11-24 20:00:00,,0835.2,5.00,0.00,23.5,22.6,00.0,32.3,25.4,12.0,0000.0,0001.43,0001.12,0001.05
2022-11-24 20:01:00,,0835.2,4.99,0.00,23.6,22.6,00.0,32.3,25.4,12.1,0000.0,0001.43,0001.11,0001.04
2022-11-24 20:02:00,,0835.2,5.01,0.00,23.6,22.7,00.0,32.4,25.5,12.0,0000.0,0001.41,0001.08,0001.02
2022-11-24 20:03:00,,0835.2,5.01,0.00,23.6,22.7,00.0,32.4,25.5,12.1,0000.0,0001.37,0001.06,0001.00
2022-11-24 20:04:00,,0835.2,4.99,0.00,23.6,22.7,00.0,32.4,25.5,12.5,0000.0,0001.19,0001.02,0000.98
2022-11-24 20:05:00,,0835.2,4.99,0.00,23.7,22.7,00.0,32.4,25.5,11.9,0000.0,0001.14,0000.98,0000.95
2022-11-24 20:06:00,,0835.2,5.00,0.00,23.7,22.7,00.0,32.4,25.6,11.9,0000.0,0001.16,0000.98,0000.94
2022-11-24 20:07:00,,0835.2,5.00,0.00,23.7,22.7,00.0,32.4,25.6,12.1,0000.0,0001.20,0000.98,0000.92
2022-11-24 20:08:00,,0835.2,5.00,0.00,23.7,22.7,00.0,32.5,25.5,12.2,0000.0,0001.19,0000.97,0000.91
2022-11-24 20:09:00,,0835.3,5.01,0.00,23.7,22.7,00.0,32.5,25.5,12.0,0000.0,0001.18,0000.96,0000.90
2022-11-24 20:10:00,,0835.3,5.00,0.00,23.7,22.7,00.0,32.5,25.6,11.9,0000.0,0001.23,0000.98,0000.90
2022-11-24 20:11:00,,0835.2,5.00,0.00,23.7,22.8,00.0,32.5,25.6,11.8,0000.0,0001.30,0000.97,0000.89
2022-11-24 20:12:00,,0835.2,5.00,0.00,23.7,22.8,00.0,32.5,25.5,12.0,0000.0,0001.28,0000.96,0000.89
2022-11-24 20:13:00,,0835.2,5.00,0.00,23.8,22.8,00.0,32.5,25.6,12.0,0000.0,0001.29,0000.96,0000.89
2022-11-24 20:14:00,,0835.2,5.00,0.00,23.8,22.8,00.0,32.6,25.6,12.1,0000.0,0001.46,0001.00,0000.90
2022-11-24 20:15:00,,0835.2,5.00,0.00,23.8,22.8,00.0,32.6,25.6,12.1,0000.0,0001.89,0001.04,0000.91
2022-11-24 20:16:00,,0835.2,5.00,0.00,23.8,22.8,00.0,32.6,25.6,11.8,0000.0,0001.89,0001.03,0000.91
2022-11-24 20:17:00,,0835.2,5.00,0.00,23.8,22.8,00.0,32.6,25.7,11.7,0000.0,0001.87,0001.01,0000.88
2022-11-24 20:18:00,,0835.1,5.00,0.00,23.8,22.8,00.0,32.6,25.7,11.7,0000.0,0001.79,0000.97,0000.86
2022-11-24 20:19:00,,0835.2,5.00,0.00,23.8,22.8,00.0,32.6,25.6,11.7,0000.0,0001.77,0000.95,0000.85
2022-11-24 20:20:00,,0835.2,5.00,0.00,23.8,22.8,00.0,32.6,25.7,11.9,0000.0,0001.80,0000.96,0000.84
2022-11-24 20:21:00,,0835.2,5.01,0.00,23.9,22.9,00.0,32.6,25.7,11.7,0000.0,0001.73,0000.93,0000.83
2022-11-24 20:22:00,,0835.2,5.00,0.00,23.9,22.9,00.0,32.7,25.7,11.8,0000.0,0001.63,0000.92,0000.83
2022-11-24 20:23:00,,0835.1,5.00,0.00,23.9,22.9,00.0,32.7,25.9,11.9,0000.0,0001.66,0000.93,0000.83
2022-11-24 20:24:00,,0835.2,4.98,0.00,23.9,22.9,00.0,32.7,25.9,11.8,0000.0,0001.71,0000.93,0000.82
2022-11-24 20:25:00,,0835.1,5.00,0.00,23.9,22.9,00.0,32.7,25.9,11.8,0000.0,0001.68,0000.88,0000.80
2022-11-24 20:26:00,,0835.1,5.00,0.00,23.9,23.0,00.0,32.7,25.9,11.7,0000.0,0001.95,0000.83,0000.77
2022-11-24 20:27:00,,0835.1,5.01,0.00,24.0,23.0,00.0,32.7,25.9,11.6,0000.0,0001.91,0000.80,0000.73
2022-11-24 20:28:00,,0835.1,5.00,0.00,24.0,23.0,00.0,32.8,25.9,11.6,0000.0,0001.87,0000.78,0000.72
2022-11-24 20:29:00,,0835.1,5.00,0.00,24.0,23.0,00.0,32.8,25.9,11.7,0000.0,0001.85,0000.76,0000.71
2022-11-24 20:30:00,,0835.2,4.99,0.00,24.0,23.0,00.0,32.8,25.9,11.6,0000.0,0001.87,0000.76,0000.69
2022-11-24 20:31:00,,0835.2,5.01,0.00,24.0,23.1,00.0,32.8,25.9,11.6,0000.0,0001.82,0000.74,0000.68
2022-11-24 20:32:00,,0835.1,5.01,0.00,24.1,23.1,00.0,32.8,26.0,11.6,0000.0,0001.80,0000.72,0000.65
2022-11-24 20:33:00,,0835.1,4.98,0.00,24.1,23.1,00.0,32.8,26.0,11.7,0000.0,0001.78,0000.69,0000.63
2022-11-24 20:34:00,,0835.1,5.01,0.00,24.1,23.1,00.0,32.9,26.0,11.6,0000.0,0001.78,0000.67,0000.60
2022-11-24 20:35:00,,0835.1,5.00,0.00,24.1,23.1,00.0,32.9,26.0,11.7,0000.0,0001.68,0000.63,0000.58
2022-11-24 20:36:00,,0835.1,5.00,0.00,24.1,23.1,00.0,32.9,26.0,12.1,0000.0,0001.61,0000.64,0000.57
2022-11-24 20:37:00,,0835.1,5.01,0.00,24.1,23.1,00.0,32.9,26.0,11.9,0000.0,0000.89,0000.64,0000.56
2022-11-24 20:38:00,,0835.1,4.99,0.00,24.1,23.2,00.0,32.9,26.0,11.9,0000.0,0000.89,0000.65,0000.56
2022-11-24 20:39:00,,0835.0,5.02,0.00,24.2,23.2,00.0,32.9,26.0,11.4,0000.0,0000.89,0000.64,0000.56
2022-11-24 20:40:00,,0835.0,4.99,0.00,24.2,23.2,00.0,33.0,26.0,11.2,0000.0,0000.92,0000.66,0000.56
2022-11-24 20:41:00,,0835.0,5.01,0.00,24.2,23.2,00.0,33.0,26.1,11.5,0000.0,0000.89,0000.64,0000.55
2022-11-24 20:42:00,,0835.0,5.00,0.00,24.2,23.2,00.0,33.0,26.1,11.3,0000.0,0000.91,0000.64,0000.55
2022-11-24 20:43:00,,0835.0,5.00,0.00,24.2,23.3,00.0,33.0,26.1,11.3,0000.0,0000.92,0000.64,0000.54
2022-11-24 20:44:00,,0835.0,5.00,0.00,24.3,23.3,00.0,33.0,26.2,11.4,0000.0,0000.96,0000.65,0000.54
2022-11-24 20:45:00,,0835.0,5.00,0.00,24.3,23.3,00.0,33.1,26.2,11.4,0000.0,0000.91,0000.63,0000.53
2022-11-24 20:46:00,,0835.1,5.02,0.00,24.3,23.3,00.0,33.1,26.3,11.4,0000.0,0000.88,0000.61,0000.51
2022-11-24 20:47:00,,0835.0,4.98,0.00,24.3,23.3,00.0,33.1,26.3,11.6,0000.0,0000.80,0000.58,0000.50
2022-11-24 20:48:00,,0835.0,5.01,0.00,24.3,23.3,00.0,33.1,26.3,11.5,0000.0,0000.81,0000.57,0000.48
2022-11-24 20:49:00,,0835.0,4.99,0.00,24.3,23.3,00.0,33.1,26.2,11.4,0000.0,0000.78,0000.54,0000.46
2022-11-24 20:50:00,,0835.0,5.00,0.00,24.3,23.3,00.0,33.1,26.2,11.4,0000.0,0000.78,0000.53,0000.44
2022-11-24 20:51:00,,0835.0,5.00,0.00,24.4,23.3,00.0,33.1,26.3,11.0,0000.0,0000.77,0000.51,0000.43
2022-11-24 20:52:00,,0835.0,5.00,0.00,24.4,23.3,00.0,33.2,26.3,11.0,0000.0,0000.75,0000.49,0000.41
2022-11-24 20:53:00,,0835.0,5.00,0.00,24.4,23.3,00.0,33.2,26.3,11.2,0000.0,0000.76,0000.48,0000.39
2022-11-24 20:54:00,,0835.0,5.00,0.00,24.4,23.3,00.0,33.2,26.3,11.4,0000.0,0000.74,0000.47,0000.39
2022-11-24 20:55:00,,0835.0,5.01,0.00,24.4,23.3,00.0,33.2,26.3,11.3,0000.0,0000.69,0000.45,0000.37
2022-11-24 20:56:00,,0834.9,4.99,0.00,24.4,23.3,00.0,33.2,26.3,11.2,0000.0,0000.66,0000.43,0000.36
2022-11-24 20:57:00,,0835.0,5.00,0.00,24.4,23.3,00.0,33.2,26.3,11.3,0000.0,0000.67,0000.43,0000.36
2022-11-24 20:58:00,,0834.9,5.01,0.00,24.4,23.4,00.0,33.2,26.3,11.5,0000.0,0000.65,0000.41,0000.35
2022-11-24 20:59:00,,0834.9,4.98,0.00,24.4,23.3,00.0,33.2,26.3,11.2,0000.0,0000.60,0000.39,0000.34
